User: anonymous   Login
Location: *
(44.1392°N, 4.8079°E)
Time: 21:24:57
(UTC+00:00)
Language:

PSLV DEB - Orbit

View from above orbital plane
View from above orbital plane
View from above satellite
View from above satellite

Ground track
Ground track

The orbit data is extracted from the following two-line orbital elements,

1 27126U 01049BW  22021.52766546  .00001132  00000-0  11830-3 0  9993
2 27126  98.2466 356.7059 0041549 138.0229 339.2403 14.91261229 86081
Epoch (UTC): 21 January 2022 12:39:50
Eccentricity: 0.0041549
inclination: 98.2466°
perigee height: 565 km
apogee height: 623 km
right ascension of ascending node: 356.7059°
argument of perigee: 138.0229°
revolutions per day: 14.91261229
mean anomaly at epoch: 339.2403°
orbit number at epoch: 8608

The dashed part of the orbit path shows where the satellite is in the earth's shadow,  

DLR